Location: Spondin
(51.8528°N, 111.6118°W)
Time: 18:30:10
(UTC+00:00)

Vanguard 2 Rocket - Pass Details

Date: 30 May 2022
Orbit: 553 x 3323 km, 32.9° (Epoch: 02 July)

Event Time Altitude Azimuth Distance (km) Brightness Sun altitude
Rises 16:28:05 0° 177° (S) 6,898 11.7 44.8°
Reaches altitude 10° 16:37:11 10° 154° (SSE) 6,208 11.8 46.1°
Maximum altitude 16:44:00 13° 134° (SE) 6,035 12.1 47.0°
Drops below altitude 10° 16:50:44 10° 113° (ESE) 6,196 12.1 47.9°
Sets 16:59:37 0° 91° (E) 6,883 11.9 49.1°
